Temperature
20 20 20 20 20 20 20 20 20 20 20 20 19 19 19 19 19 19 19 19 19 19 19 19 19 19 19 19 19 19 18 18 18 18 18 18 18 18 18 18 18 18 18
20 20 20 20 20 20 20 20 20 20 20 20 19 19 19 19 19 19 19 19 19 19 19 19 19 19 19 19 19 18 18 18 18 18 18 18 18 18 18 18 18 18 18
20 20 20 20 20 20 20 20 20 20 20 19 19 19 19 19 19 19 19 19 19 19 19 19 19 19 19 19 18 18 18 18 18 18 18 18 18 18 18 18 18 18 18
20 20 20 20 20 20 20 20 20 20 20 19 19 19 19 19 19 19 19 19 19 19 19 19 19 19 18 18 18 18 18 18 18 18 18 18 18 18 18 18 18 18 18
21 20 20 20 20 20 20 20 20 20 20 19 19 19 19 19 19 19 19 19 19 19 19 19 19 18 18 18 18 18 18 18 18 18 18 18 18 18 18 18 18 18 18
20 20 20 20 20 20 20 20 20 20 20 20 20 19 19 19 19 20 19 19 19 19 19 19 19 18 18 18 18 18 18 18 18 18 18 18 18 18 18 18 18 18 17
21 20 20 20 20 20 20 20 20 20 20 20 20 20 19 19 19 19 19 19 19 19 19 19 19 18 18 18 18 18 18 18 18 18 18 18 18 18 18 18 18 18 17
21 21 20 20 20 20 20 20 20 20 20 20 20 20 19 19 19 19 19 19 19 19 19 19 19 18 18 18 18 18 18 18 18 18 18 18 18 18 18 18 18 17 17
20 20 20 20 20 20 20 20 20 20 20 20 20 19 19 19 19 19 19 19 19 19 19 19 18 18 18 18 18 18 18 18 18 18 18 18 18 18 18 18 18 18 17
20 20 20 20 20 20 20 20 20 20 19 19 19 19 19 19 19 19 19 19 19 19 19 19 18 18 18 18 18 18 18 18 18 18 18 18 18 18 18 18 18 17 17
20 20 20 20 20 20 20 20 20 19 19 19 19 19 19 19 19 19 19 19 19 19 19 19 18 18 18 18 18 18 18 18 18 18 18 18 18 18 18 18 18 18 17
20 20 20 20 20 20 20 20 20 19 19 19 19 19 19 19 19 19 19 19 19 18 19 18 18 18 18 18 18 18 18 18 18 18 18 18 18 18 18 18 18 18 17
20 20 20 20 20 20 20 20 20 20 19 19 19 19 19 19 19 19 19 19 18 18 18 18 18 18 18 18 18 18 18 18 18 18 18 18 18 18 18 18 18 18 17
21 20 20 20 20 20 20 20 20 20 20 19 19 19 19 19 19 19 19 19 19 19 18 18 18 18 18 18 18 18 18 18 18 18 18 18 18 18 18 18 18 17 17
21 21 20 20 20 20 20 20 20 20 20 19 19 19 19 19 19 19 19 19 18 19 18 18 18 18 18 18 18 18 18 18 18 18 18 18 18 17 17 17 17 17 17
21 21 21 20 20 20 20 20 20 20 20 19 19 19 19 19 19 19 19 19 18 18 18 18 18 18 18 18 18 18 18 18 18 18 18 18 18 17 17 17 17 17 17
21 21 21 21 20 20 20 20 20 20 20 20 19 19 19 19 19 19 19 19 19 18 18 18 18 18 18 18 18 18 18 18 18 18 18 18 18 17 17 17 17 17 17
21 21 21 21 20 20 20 20 20 20 20 20 19 19 19 19 19 19 19 19 19 19 18 18 18 18 18 18 18 18 18 18 18 18 18 18 18 17 17 17 17 17 17
22 21 21 21 21 20 20 20 20 20 20 20 19 19 19 19 19 19 19 19 19 18 18 18 18 18 18 18 18 18 18 18 18 18 18 18 18 17 17 17 17 17 17
22 21 21 21 21 20 20 20 20 20 20 20 19 19 19 19 19 19 19 19 19 18 18 18 18 18 18 18 18 18 18 18 18 18 18 18 18 17 17 17 17 17 17
22 21 21 21 21 20 20 20 20 20 20 20 19 19 19 19 19 19 19 19 19 19 19 18 18 18 18 18 18 18 18 18 18 18 18 18 18 18 17 17 17 17 17
22 22 21 21 21 20 20 20 20 20 20 19 19 19 19 19 19 19 19 19 19 19 19 18 18 18 18 18 18 18 18 18 18 18 18 18 18 18 17 17 17 17 17
22 22 21 21 21 20 20 20 20 20 20 19 19 19 19 19 19 19 19 19 19 19 19 18 18 18 18 18 18 18 18 18 18 18 18 18 18 18 17 17 17 17 17
22 22 22 21 21 21 20 20 20 20 20 20 19 19 19 19 19 19 19 19 19 19 18 18 18 18 18 18 18 18 18 18 17 18 18 18 18 18 18 17 17 17 17
22 22 22 21 21 21 20 20 20 20 20 19 19 19 19 19 19 19 19 19 18 18 18 18 18 18 18 18 18 18 18 18 17 17 17 18 18 18 18 17 17 17 17
22 22 21 21 21 21 20 20 20 20 20 19 19 19 19 19 19 19 19 19 18 18 18 18 18 18 18 18 18 18 18 18 17 17 17 17 17 18 17 17 17 17 17
Wind_Speed
3 5 9 10 12 12 12 12 13 14 15 15 16 16 16 16 16 15 15 16 16 16 16 15 15 15 15 14 14 14 14 14 14 14 13 13 12 12 12 11 11 10 11
6 8 10 11 12 13 13 13 14 14 16 16 16 16 15 15 15 14 14 15 15 15 15 15 14 14 14 14 13 14 13 13 13 12 12 11 11 11 10 10 10 9 10
7 8 10 12 13 14 14 14 14 14 15 15 15 14 14 13 13 13 14 15 15 15 15 14 14 13 13 13 13 12 12 12 11 11 10 8 8 9 9 9 10 10 9
8 8 10 12 14 14 14 14 14 14 14 14 13 13 13 12 12 13 13 14 14 14 14 13 13 12 12 12 11 11 11 11 10 9 7 7 7 9 9 9 9 9 8
7 8 10 13 14 14 14 14 14 14 14 13 13 12 12 12 12 12 12 13 13 13 13 13 12 12 11 11 10 9 9 9 9 8 7 6 6 8 8 8 9 8 8
7 8 10 14 13 13 13 13 13 13 13 13 12 12 12 11 11 11 12 13 13 12 12 12 12 11 11 10 9 8 8 8 8 6 6 7 7 8 8 8 8 8 8
7 7 10 14 14 13 13 13 13 13 12 12 12 11 11 10 10 12 12 12 12 12 12 12 12 11 10 9 8 7 7 7 7 6 6 7 8 9 8 8 8 8 8
9 7 9 12 13 13 13 13 12 12 11 11 10 10 10 10 11 12 11 11 11 11 11 11 11 10 9 8 7 6 6 6 6 6 6 7 9 10 9 8 8 8 7
8 7 6 9 10 12 12 12 12 11 11 10 10 10 10 9 10 10 10 10 11 11 10 10 10 9 8 8 7 6 6 6 6 6 6 6 9 10 9 8 8 8 7
7 6 6 6 7 8 9 11 11 10 10 9 9 9 9 9 9 8 8 9 10 10 9 9 8 8 7 7 6 6 5 6 5 5 5 6 9 10 9 8 8 7 7
6 6 6 6 6 6 7 9 9 9 9 8 7 8 7 6 6 7 8 9 8 8 7 7 6 6 6 6 5 5 4 4 5 4 5 7 9 9 8 8 7 7 6
7 6 6 6 6 6 6 7 7 7 6 6 6 6 6 5 5 6 8 8 8 7 6 5 4 4 3 3 4 4 3 4 4 4 5 7 9 9 8 7 7 7 6
7 7 6 6 6 6 4 5 5 5 5 5 5 6 6 5 5 5 4 5 4 4 3 3 2 1 1 2 3 3 4 4 4 5 6 9 10 9 8 8 8 7 7
7 7 6 5 5 5 6 5 4 4 4 4 4 6 5 4 3 3 3 4 3 3 2 2 1 1 1 2 3 3 4 4 4 5 7 9 10 9 8 8 9 8 8
7 6 5 5 5 4 5 4 5 4 4 5 5 5 6 4 4 4 3 3 3 3 3 2 1 1 1 1 3 3 4 4 5 6 7 9 10 9 9 9 9 9 8
7 6 5 5 5 6 5 4 4 4 4 4 4 5 7 5 4 4 3 2 3 4 3 3 2 2 2 2 2 3 3 5 5 6 7 8 9 10 10 10 10 9 9
8 7 6 5 5 6 5 4 4 4 5 4 3 5 6 6 5 4 3 2 3 4 4 2 2 2 2 2 2 3 3 4 5 5 6 6 7 10 10 11 10 10 10
8 7 6 6 6 5 4 4 3 4 5 4 4 5 6 6 6 4 3 2 2 3 3 2 2 1 1 1 2 2 2 3 4 5 6 7 7 7 9 11 11 11 10
9 8 6 6 5 4 4 4 3 3 4 3 4 4 5 5 6 4 3 2 3 2 2 2 2 2 2 1 2 2 2 2 3 4 5 6 7 8 8 9 11 11 11
8 8 7 6 5 4 3 3 3 3 2 2 2 3 4 4 5 4 2 2 2 1 1 1 2 1 2 2 1 2 2 2 2 2 4 4 6 7 8 8 8 9 12
8 7 7 6 5 4 3 3 3 2 2 2 1 3 4 5 5 4 2 2 2 2 2 2 2 1 1 1 1 2 3 2 2 2 2 2 4 6 6 7 8 8 8
8 8 7 7 6 5 3 3 3 3 2 2 1 1 3 4 4 4 3 2 2 2 1 1 2 1 1 2 2 1 2 4 3 2 2 3 3 3 4 6 7 7 8
9 9 9 7 6 6 5 3 3 3 2 1 1 0 1 3 3 2 2 2 2 2 2 2 2 3 2 1 1 3 2 2 3 3 2 2 2 2 3 4 5 6 8
11 9 8 8 7 6 5 5 5 4 3 3 2 2 1 2 2 2 2 2 2 2 2 2 2 2 2 2 1 1 3 3 2 2 3 2 2 2 3 3 4 5 6
10 9 7 7 6 5 6 6 5 4 3 2 2 2 2 1 1 1 2 2 2 2 2 1 1 2 2 2 2 1 1 1 2 2 3 3 3 3 2 3 3 4 6
9 8 7 7 6 5 6 6 6 6 4 4 3 2 1 1 1 2 1 2 2 2 2 2 2 2 2 2 2 1 2 1 2 2 3 3 3 3 3 2 3 4 5
Wind_Direction
145 147 132 123 118 116 115 110 104 105 113 118 121 120 120 122 125 129 133 136 137 139 140 141 140 138 134 130 129 128 129 131 128 127 125 122 119 117 117 116 118 119 121
155 145 132 123 118 117 116 113 110 108 111 115 116 117 120 124 127 130 134 137 140 141 143 143 142 141 138 134 133 132 133 132 128 127 125 122 123 122 122 124 124 126 125
139 138 132 125 121 118 117 114 113 113 114 115 116 117 121 123 128 132 136 138 140 142 144 145 145 143 141 138 137 136 135 132 130 131 127 120 124 128 128 129 131 133 131
134 135 134 129 125 121 119 117 116 115 115 116 118 119 122 124 127 133 138 140 141 143 145 146 147 145 142 140 141 140 138 140 140 138 134 136 138 136 136 134 138 141 141
127 135 138 133 128 125 122 120 119 118 118 119 119 118 119 122 125 132 138 142 143 145 149 150 149 148 145 145 144 141 143 149 149 145 142 147 150 151 147 147 149 151 152
132 139 141 135 131 129 126 124 122 120 118 118 118 117 117 120 126 134 139 142 145 149 152 153 153 152 151 149 147 146 152 152 149 146 145 156 160 162 161 162 161 160 165
141 145 144 139 136 133 131 128 125 122 119 117 116 119 121 125 130 135 139 143 146 149 151 153 155 154 150 148 149 150 153 153 150 147 153 160 166 171 172 173 173 173 178
145 144 147 145 142 138 135 134 131 127 124 121 119 121 122 122 126 132 135 142 146 148 151 154 157 153 149 151 152 153 151 154 153 152 156 168 171 176 180 180 179 182 184
139 139 141 148 147 143 142 142 139 135 132 128 126 126 125 126 127 129 137 141 147 149 150 151 153 155 159 158 155 154 152 155 151 160 171 176 183 183 184 184 185 189 189
136 143 146 148 146 148 150 153 148 145 141 137 136 135 133 135 136 135 136 140 144 147 149 153 157 159 165 163 160 158 152 151 150 163 169 183 190 189 189 184 185 187 188
141 153 154 155 158 161 159 158 154 151 150 144 146 146 144 141 143 143 141 146 149 147 149 158 164 166 168 171 171 167 162 155 164 166 171 182 184 184 180 176 178 181 183
151 159 162 163 171 172 169 163 162 156 151 145 146 149 148 148 151 148 146 147 148 151 156 162 162 159 171 179 183 177 174 160 165 170 175 179 183 184 181 178 179 179 181
155 152 154 160 169 172 163 160 168 164 153 150 146 148 149 147 147 142 144 145 145 149 156 155 148 148 179 194 196 184 181 172 174 186 187 190 191 192 189 187 187 188 187
136 143 149 152 154 158 153 162 163 163 157 157 151 145 147 144 144 151 152 156 152 157 153 154 163 197 234 221 193 184 184 182 182 187 193 196 196 196 196 193 193 195 195
132 136 138 135 140 146 142 150 148 153 154 159 148 148 148 147 147 148 152 162 162 163 167 175 185 203 221 231 198 184 180 180 189 190 197 204 201 201 204 199 198 202 200
142 144 143 132 130 128 125 127 136 143 148 141 141 144 149 150 148 144 147 154 170 174 179 188 196 207 226 224 214 200 187 188 199 200 199 205 207 207 206 205 207 211 208
148 144 145 142 124 120 122 127 132 137 138 138 146 142 144 149 152 148 145 158 177 171 165 167 205 213 214 207 208 213 199 200 204 206 205 206 213 213 210 210 214 217 216
141 140 146 138 126 125 124 125 125 134 135 140 146 144 156 161 155 147 147 168 172 155 152 162 177 193 213 213 223 233 217 210 214 210 207 212 215 220 220 221 220 221 223
146 142 137 128 132 136 128 124 122 124 127 137 141 149 157 154 151 152 159 169 169 156 174 192 171 179 197 230 236 241 236 223 217 216 208 212 215 220 220 224 224 224 228
147 143 141 137 138 132 116 105 98 92 102 120 138 159 159 152 152 154 157 170 163 143 192 199 188 196 202 213 242 271 258 239 210 217 216 213 216 220 220 222 220 228 232
145 147 150 146 146 133 121 121 123 129 132 129 143 158 155 160 161 154 158 161 148 163 199 200 176 193 222 166 69 338 321 290 240 228 223 221 224 221 217 216 216 221 230
158 159 159 159 157 158 157 154 151 146 144 140 125 129 159 165 162 159 157 171 166 170 205 207 166 175 212 159 140 106 342 337 325 262 218 213 224 211 211 218 217 220 223
168 170 170 171 167 165 156 132 111 86 74 71 98 156 191 172 169 165 173 171 173 173 194 210 188 175 205 242 171 155 159 242 297 313 283 251 235 230 232 217 213 223 224
177 175 172 171 168 166 153 145 145 147 161 195 191 191 193 164 162 165 167 180 186 179 188 220 197 179 168 222 265 210 190 180 185 295 312 296 270 243 234 220 215 217 220
174 171 171 167 167 162 154 154 150 153 169 169 158 168 193 219 195 184 177 188 192 187 196 206 202 185 178 191 208 228 211 193 173 188 274 304 314 287 251 228 215 208 216
165 160 160 161 169 167 159 154 154 156 157 151 159 180 212 249 261 248 221 211 206 202 204 202 202 199 193 191 198 193 184 194 208 191 232 265 281 286 276 248 224 217 213
Height
1511 1510 1509 1508 1507 1505 1504 1503 1501 1499 1498 1501 1505 1509 1512 1515 1517 1518 1520 1521 1523 1524 1526 1528 1529 1531 1532 1534 1535 1536 1537 1538 1539 1540 1541 1542 1542 1543 1544 1544 1545 1545 1546
1511 1510 1510 1509 1508 1506 1506 1506 1505 1503 1503 1505 1508 1511 1513 1516 1517 1519 1520 1521 1523 1524 1526 1528 1529 1531 1533 1534 1536 1537 1538 1539 1540 1541 1541 1542 1543 1543 1544 1544 1545 1545 1546
1512 1511 1511 1510 1509 1509 1508 1508 1508 1508 1508 1509 1511 1513 1515 1516 1518 1519 1520 1521 1523 1524 1526 1528 1530 1532 1533 1535 1536 1537 1538 1539 1540 1541 1542 1543 1543 1544 1544 1545 1545 1546 1546
1513 1513 1512 1512 1512 1511 1511 1511 1511 1511 1512 1513 1514 1515 1516 1517 1518 1519 1520 1521 1523 1524 1526 1528 1530 1532 1534 1535 1536 1537 1538 1540 1541 1542 1542 1543 1544 1544 1544 1545 1545 1546 1546
1514 1514 1514 1514 1513 1513 1513 1513 1514 1514 1515 1515 1516 1517 1517 1518 1518 1519 1520 1521 1523 1525 1527 1529 1530 1532 1534 1535 1537 1538 1539 1540 1541 1542 1543 1543 1544 1544 1545 1545 1545 1546 1546
1515 1515 1515 1515 1515 1515 1516 1516 1516 1517 1517 1518 1518 1518 1519 1519 1519 1520 1521 1522 1523 1525 1527 1529 1531 1533 1534 1536 1537 1538 1539 1540 1541 1542 1543 1543 1544 1544 1545 1545 1545 1546 1546
1516 1516 1517 1517 1517 1517 1518 1518 1519 1519 1519 1520 1520 1520 1521 1521 1520 1521 1521 1523 1524 1526 1527 1529 1531 1533 1535 1536 1537 1538 1539 1541 1541 1542 1542 1543 1544 1544 1544 1545 1545 1545 1546
1516 1517 1518 1518 1518 1519 1519 1520 1520 1521 1522 1522 1522 1522 1522 1522 1522 1522 1523 1524 1525 1527 1528 1530 1532 1534 1535 1536 1537 1539 1540 1541 1541 1542 1542 1543 1543 1543 1544 1544 1544 1545 1545
1517 1518 1519 1519 1520 1520 1521 1522 1523 1523 1524 1524 1524 1524 1525 1525 1525 1525 1525 1526 1527 1528 1530 1531 1533 1534 1535 1537 1538 1539 1540 1541 1541 1542 1542 1543 1543 1543 1543 1543 1543 1544 1544
1518 1518 1519 1520 1521 1522 1523 1524 1524 1525 1525 1525 1526 1526 1527 1527 1527 1527 1527 1528 1529 1530 1531 1532 1534 1535 1536 1537 1538 1539 1540 1540 1541 1542 1542 1542 1542 1543 1543 1542 1543 1543 1543
1518 1519 1520 1521 1522 1523 1524 1525 1526 1526 1527 1527 1528 1528 1528 1529 1529 1529 1530 1530 1531 1531 1532 1533 1535 1535 1536 1537 1538 1539 1539 1540 1541 1541 1542 1542 1542 1542 1542 1542 1542 1542 1542
1518 1519 1520 1521 1522 1524 1525 1526 1527 1527 1528 1528 1529 1529 1530 1530 1531 1531 1531 1532 1533 1533 1534 1535 1535 1536 1537 1537 1538 1539 1539 1540 1540 1541 1541 1541 1541 1541 1541 1541 1541 1541 1541
1519 1520 1521 1522 1523 1524 1525 1526 1527 1528 1529 1529 1530 1530 1531 1531 1532 1532 1532 1533 1533 1534 1534 1535 1536 1536 1537 1537 1538 1539 1539 1539 1540 1540 1540 1540 1541 1541 1541 1540 1540 1540 1540
1520 1521 1522 1523 1523 1524 1525 1527 1528 1529 1530 1530 1531 1531 1532 1532 1532 1533 1533 1534 1534 1535 1535 1536 1536 1537 1537 1538 1538 1538 1539 1539 1539 1539 1539 1540 1540 1540 1540 1539 1539 1539 1539
1521 1522 1523 1523 1523 1524 1526 1527 1529 1530 1531 1531 1532 1532 1532 1533 1533 1533 1534 1534 1535 1535 1536 1536 1537 1537 1537 1537 1538 1538 1538 1538 1539 1539 1539 1539 1539 1539 1539 1539 1539 1539 1538
1522 1523 1524 1524 1524 1525 1527 1528 1529 1530 1531 1532 1532 1533 1533 1533 1534 1534 1534 1535 1535 1536 1536 1536 1537 1537 1537 1537 1537 1537 1538 1538 1538 1538 1538 1538 1538 1538 1538 1538 1538 1538 1538
1523 1524 1525 1526 1526 1527 1529 1530 1531 1531 1532 1533 1533 1534 1534 1534 1534 1535 1535 1535 1536 1536 1536 1536 1537 1537 1537 1537 1537 1537 1537 1537 1537 1537 1538 1538 1537 1537 1537 1537 1536 1536 1536
1524 1525 1526 1527 1528 1529 1530 1531 1532 1533 1533 1534 1534 1534 1535 1535 1535 1536 1536 1536 1536 1536 1536 1536 1536 1536 1536 1536 1537 1537 1537 1537 1536 1536 1536 1536 1536 1536 1536 1536 1536 1535 1535
1524 1526 1527 1528 1529 1530 1531 1532 1533 1534 1534 1535 1535 1535 1535 1536 1536 1536 1536 1536 1536 1536 1536 1536 1536 1536 1536 1536 1536 1536 1536 1536 1536 1535 1535 1535 1535 1535 1535 1535 1534 1534 1533
1525 1526 1528 1529 1530 1531 1532 1532 1533 1534 1535 1535 1535 1535 1536 1536 1536 1536 1536 1536 1536 1536 1536 1536 1536 1536 1536 1536 1535 1535 1535 1535 1534 1534 1534 1534 1533 1533 1533 1533 1532 1532 1532
1525 1526 1528 1529 1530 1531 1532 1532 1533 1534 1535 1535 1535 1536 1536 1536 1536 1536 1536 1536 1536 1535 1535 1535 1535 1535 1535 1535 1535 1534 1534 1534 1533 1533 1532 1532 1531 1531 1531 1531 1531 1530 1530
1524 1526 1527 1529 1530 1531 1532 1533 1534 1534 1535 1535 1535 1536 1536 1536 1536 1536 1535 1535 1535 1535 1534 1534 1534 1534 1534 1534 1534 1533 1533 1533 1532 1531 1531 1530 1530 1530 1530 1530 1529 1529 1528
1524 1525 1526 1528 1529 1530 1531 1532 1533 1534 1534 1534 1535 1535 1535 1535 1535 1535 1534 1534 1534 1534 1533 1533 1533 1533 1532 1533 1533 1533 1532 1531 1530 1530 1530 1529 1529 1528 1528 1528 1527 1526 1526
1522 1524 1526 1527 1528 1529 1531 1531 1532 1532 1532 1533 1533 1533 1534 1534 1534 1534 1534 1533 1533 1533 1532 1532 1531 1531 1531 1531 1531 1531 1531 1531 1530 1529 1529 1528 1527 1527 1526 1526 1525 1524 1524
1520 1522 1524 1526 1527 1528 1529 1530 1531 1531 1532 1532 1532 1532 1533 1533 1533 1533 1533 1532 1532 1531 1531 1531 1530 1529 1529 1529 1529 1529 1529 1529 1528 1528 1526 1526 1526 1525 1524 1524 1523 1522 1522
1519 1521 1523 1525 1526 1527 1528 1529 1529 1530 1530 1531 1531 1531 1531 1531 1531 1531 1531 1531 1530 1530 1530 1529 1529 1528 1527 1527 1527 1527 1527 1527 1526 1525 1525 1524 1523 1523 1523 1522 1521 1520 1520